contact:dominique.lefevre@mio.osupytheas.fr, maurice.libes@osupytheas.fr, didier.mallarino@osupytheas.fr
Project:EMSO http://www.emso-fr.org/EMSO-France
Depth: 2436.0 m
Title:EMSO Ligure Ouest : Data MII capteur AQUADOPP
Date,Latitude,Longitude,X_East,Y_North,Z_Up,Amplitude_X,Amplitude_Y,Amplitude_Z,Batterie,SoundSpeed,Heading,Pitch,Roll,Pressure,TIS,Speed,Direction
, degrees North, degrees East, m.s-1, m.s-1,m.s-1, 1, 1, 1, Volt, m.s-1, degree, degree, degree, dbar, degree_C, m.s-1, degree
2020-04-12T00:04:03,42.805,6.029,-0.086,-0.009,-0.043,105.0,105.0,102.0,13.4,1505.2,328.4,-0.7,1.9,2470.396,13.3,0.086,264.0
2020-04-12T00:07:03,42.805,6.029,-0.072,0.012,-0.007,105.0,106.0,103.0,13.4,1505.3,326.5,-0.7,1.8,2470.362,13.31,0.072,279.5
2020-04-12T00:10:03,42.805,6.029,-0.054,-0.011,0.005,105.0,106.0,102.0,13.4,1505.3,322.8,-0.7,1.8,2470.356,13.31,0.055,258.5
2020-04-12T00:13:03,42.805,6.029,-0.073,-0.006,-0.048,105.0,106.0,103.0,13.3,1505.3,326.0,-0.7,1.8,2470.372,13.32,0.073,265.3
2020-04-12T00:16:03,42.805,6.029,-0.061,-0.003,-0.049,103.0,106.0,103.0,13.4,1505.3,325.4,-0.7,1.8,2470.32,13.32,0.061,267.2
2020-04-12T00:19:03,42.805,6.029,-0.053,0.001,-0.019,105.0,107.0,102.0,13.4,1505.3,323.2,-0.7,1.8,2470.32,13.32,0.053,271.1
2020-04-12T00:22:03,42.805,6.029,-0.074,0.008,-0.015,106.0,107.0,104.0,13.4,1505.3,325.3,-0.7,1.9,2470.346,13.32,0.074,276.2
2020-04-12T00:25:03,42.805,6.029,-0.071,0.008,-0.039,104.0,105.0,102.0,13.4,1505.3,323.1,-0.7,1.8,2470.356,13.32,0.071,276.4
2020-04-12T00:28:03,42.805,6.029,-0.067,0.0,-0.015,106.0,105.0,102.0,13.4,1505.3,324.8,-0.7,1.8,2470.343,13.32,0.066,270.0
2020-04-12T00:31:03,42.805,6.029,-0.079,0.01,-0.032,105.0,105.0,103.0,13.3,1505.3,327.1,-0.7,1.8,2470.351,13.32,0.079,277.2
2020-04-12T00:34:03,42.805,6.029,-0.063,0.01,-0.038,104.0,107.0,104.0,13.3,1505.3,326.9,-0.7,1.8,2470.32,13.32,0.063,279.0
2020-04-12T00:37:03,42.805,6.029,-0.043,-0.006,-0.018,105.0,107.0,103.0,13.3,1505.3,326.1,-0.7,1.8,2470.328,13.32,0.043,262.1
2020-04-12T00:40:03,42.805,6.029,-0.076,-0.004,-0.019,105.0,106.0,104.0,13.3,1505.3,323.7,-0.7,1.8,2470.327,13.32,0.076,267.0
2020-04-12T00:43:03,42.805,6.029,-0.066,0.0,-0.043,105.0,106.0,102.0,13.4,1505.3,326.4,-0.7,1.8,2470.327,13.32,0.065,270.0
2020-04-12T00:46:02,42.805,6.029,-0.061,0.0,-0.021,106.0,107.0,102.0,13.4,1505.3,326.3,-0.7,1.8,2470.304,13.32,0.06,270.0
2020-04-12T00:49:03,42.805,6.029,-0.075,-0.012,-0.029,105.0,105.0,102.0,13.4,1505.3,326.3,-0.7,1.8,2470.309,13.32,0.075,260.9
2020-04-12T00:52:03,42.805,6.029,-0.077,0.006,-0.042,104.0,105.0,102.0,13.4,1505.3,324.8,-0.7,1.8,2470.345,13.32,0.077,274.5
2020-04-12T00:55:03,42.805,6.029,-0.106,0.003,-0.035,105.0,104.0,102.0,13.3,1505.3,324.9,-0.7,1.8,2470.309,13.32,0.106,271.6
2020-04-12T00:58:03,42.805,6.029,-0.086,0.0,-0.058,105.0,108.0,102.0,13.4,1505.3,327.8,-0.7,1.9,2470.324,13.32,0.085,270.0
2020-04-12T01:04:03,42.805,6.029,-0.074,0.003,-0.005,106.0,108.0,104.0,13.3,1505.2,328.3,-0.7,1.8,2470.357,13.3,0.074,272.3
2020-04-12T01:07:03,42.805,6.029,-0.034,-0.018,-0.012,106.0,105.0,102.0,13.4,1505.3,328.5,-0.7,1.8,2470.287,13.31,0.038,242.1
2020-04-12T01:10:03,42.805,6.029,-0.055,-0.009,-0.037,105.0,106.0,102.0,13.4,1505.3,327.5,-0.7,1.8,2470.308,13.31,0.055,260.7
2020-04-12T01:13:03,42.805,6.029,-0.074,0.001,-0.025,106.0,105.0,103.0,13.4,1505.3,324.4,-0.7,1.8,2470.327,13.32,0.074,270.8
2020-04-12T01:16:03,42.805,6.029,-0.082,0.0,-0.065,104.0,105.0,103.0,13.4,1505.3,326.2,-0.7,1.9,2470.324,13.32,0.081,270.0
2020-04-12T01:19:03,42.805,6.029,-0.054,-0.005,-0.023,104.0,105.0,103.0,13.3,1505.3,327.0,-0.7,1.9,2470.329,13.32,0.054,264.7
2020-04-12T01:22:03,42.805,6.029,-0.072,-0.012,-0.051,106.0,105.0,101.0,13.3,1505.3,324.9,-0.7,1.9,2470.3,13.32,0.072,260.5
2020-04-12T01:25:03,42.805,6.029,-0.082,0.0,-0.03,105.0,105.0,102.0,13.4,1505.3,325.8,-0.7,1.8,2470.294,13.32,0.081,270.0
2020-04-12T01:28:03,42.805,6.029,-0.051,-0.012,-0.025,104.0,105.0,102.0,13.3,1505.3,323.4,-0.7,1.8,2470.31,13.32,0.052,256.8
2020-04-12T01:31:03,42.805,6.029,-0.064,-0.018,-0.043,104.0,105.0,104.0,13.4,1505.3,324.2,-0.7,1.8,2470.277,13.32,0.066,254.3
2020-04-12T01:34:03,42.805,6.029,-0.066,-0.003,-0.026,106.0,104.0,102.0,13.4,1505.3,327.0,-0.7,1.8,2470.275,13.32,0.066,267.4
2020-04-12T01:37:03,42.805,6.029,-0.093,-0.006,-0.029,105.0,104.0,102.0,13.4,1505.3,325.1,-0.7,1.8,2470.322,13.32,0.093,266.3
2020-04-12T01:40:03,42.805,6.029,-0.045,0.008,-0.026,106.0,105.0,103.0,13.4,1505.3,324.7,-0.7,1.8,2470.333,13.32,0.045,280.1
2020-04-12T01:43:03,42.805,6.029,-0.069,-0.02,-0.027,105.0,104.0,101.0,13.3,1505.3,323.7,-0.7,1.8,2470.295,13.32,0.071,253.8
2020-04-12T01:46:03,42.805,6.029,-0.057,-0.011,-0.05,103.0,105.0,102.0,13.4,1505.3,324.8,-0.7,1.8,2470.304,13.32,0.058,259.1
2020-04-12T01:49:03,42.805,6.029,-0.057,0.006,-0.009,105.0,105.0,102.0,13.4,1505.3,324.1,-0.7,1.8,2470.27,13.32,0.057,276.0
2020-04-12T01:52:03,42.805,6.029,-0.049,-0.002,-0.041,104.0,106.0,102.0,13.3,1505.3,326.3,-0.7,1.8,2470.318,13.32,0.049,267.7
2020-04-12T01:55:03,42.805,6.029,-0.054,0.004,-0.035,105.0,106.0,103.0,13.4,1505.3,324.7,-0.7,1.8,2470.272,13.32,0.054,274.2
2020-04-12T02:04:03,42.805,6.029,-0.072,0.026,-0.025,104.0,105.0,102.0,13.4,1505.2,325.7,-0.8,1.8,2470.322,13.29,0.076,289.9
2020-04-12T02:07:03,42.805,6.029,-0.067,-0.016,-0.03,105.0,106.0,101.0,13.3,1505.2,324.3,-0.7,1.9,2470.335,13.3,0.068,256.6
2020-04-12T02:10:03,42.805,6.029,-0.059,0.003,-0.043,104.0,106.0,102.0,13.3,1505.3,328.4,-0.7,1.9,2470.362,13.31,0.059,272.9
2020-04-12T02:13:03,42.805,6.029,-0.058,-0.01,-0.025,105.0,105.0,101.0,13.4,1505.3,326.6,-0.7,1.8,2470.334,13.31,0.058,260.2
2020-04-12T02:16:03,42.805,6.029,-0.065,0.002,-0.026,105.0,106.0,102.0,13.3,1505.3,324.6,-0.7,1.8,2470.301,13.32,0.065,271.8
2020-04-12T02:19:03,42.805,6.029,-0.053,0.007,0.0,105.0,106.0,102.0,13.4,1505.3,324.9,-0.7,1.8,2470.341,13.32,0.053,277.5
2020-04-12T02:22:03,42.805,6.029,-0.083,-0.007,-0.04,104.0,105.0,101.0,13.3,1505.3,323.2,-0.7,1.9,2470.304,13.32,0.083,265.2
2020-04-12T02:25:03,42.805,6.029,-0.059,0.0,-0.017,104.0,104.0,102.0,13.4,1505.3,327.2,-0.7,1.8,2470.297,13.32,0.058,270.0
2020-04-12T02:28:03,42.805,6.029,-0.054,-0.008,-0.016,103.0,107.0,101.0,13.4,1505.3,326.3,-0.7,1.8,2470.343,13.32,0.054,261.6
2020-04-12T02:31:03,42.805,6.029,-0.057,-0.01,-0.037,105.0,106.0,101.0,13.4,1505.3,326.4,-0.7,1.8,2470.286,13.32,0.057,260.1
2020-04-12T02:34:03,42.805,6.029,-0.06,-0.015,0.001,105.0,105.0,102.0,13.4,1505.3,326.1,-0.7,1.8,2470.304,13.32,0.061,256.0
2020-04-12T02:37:03,42.805,6.029,-0.049,-0.026,0.001,105.0,105.0,101.0,13.4,1505.3,328.4,-0.7,1.9,2470.262,13.32,0.055,242.1
2020-04-12T02:40:03,42.805,6.029,-0.055,-0.013,-0.056,104.0,105.0,102.0,13.4,1505.3,325.9,-0.7,1.9,2470.283,13.32,0.056,256.7
2020-04-12T02:43:03,42.805,6.029,-0.05,-0.003,-0.001,106.0,105.0,102.0,13.4,1505.3,325.0,-0.7,1.8,2470.256,13.32,0.05,266.6
2020-04-12T02:46:03,42.805,6.029,-0.055,0.006,-0.018,105.0,106.0,102.0,13.4,1505.3,327.3,-0.7,1.8,2470.251,13.32,0.055,276.2
2020-04-12T02:49:03,42.805,6.029,-0.038,0.0,-0.034,104.0,105.0,103.0,13.4,1505.3,323.1,-0.7,1.8,2470.242,13.32,0.038,270.0
2020-04-12T02:52:03,42.805,6.029,-0.047,-0.008,-0.024,104.0,106.0,103.0,13.3,1505.3,326.6,-0.7,1.8,2470.254,13.32,0.047,260.3
2020-04-12T02:55:03,42.805,6.029,-0.051,-0.022,-0.035,106.0,106.0,102.0,13.3,1505.3,328.1,-0.7,1.8,2470.23,13.32,0.055,246.7
2020-04-12T02:58:03,42.805,6.029,-0.053,-0.006,-0.034,104.0,104.0,102.0,13.4,1505.3,328.5,-0.7,1.9,2470.222,13.32,0.053,263.5
2020-04-12T03:04:03,42.805,6.029,-0.057,-0.009,-0.023,104.0,105.0,101.0,13.3,1505.2,328.5,-0.7,1.8,2470.297,13.3,0.057,261.0
2020-04-12T03:07:03,42.805,6.029,-0.063,-0.003,-0.036,105.0,106.0,102.0,13.4,1505.3,326.5,-0.7,1.9,2470.307,13.31,0.063,267.3
2020-04-12T03:10:03,42.805,6.029,-0.066,-0.037,-0.014,104.0,105.0,102.0,13.4,1505.3,324.5,-0.7,1.8,2470.283,13.31,0.075,240.7
2020-04-12T03:13:03,42.805,6.029,-0.037,-0.023,-0.03,106.0,105.0,102.0,13.3,1505.3,323.4,-0.8,1.8,2470.26,13.32,0.043,238.1
2020-04-12T03:16:03,42.805,6.029,-0.057,0.013,-0.035,104.0,106.0,102.0,13.4,1505.3,323.2,-0.7,1.8,2470.255,13.32,0.058,282.8
2020-04-12T03:19:03,42.805,6.029,-0.069,-0.003,-0.025,106.0,104.0,101.0,13.3,1505.3,328.3,-0.7,1.9,2470.229,13.32,0.069,267.5
2020-04-12T03:22:03,42.805,6.029,-0.06,-0.018,-0.04,106.0,106.0,103.0,13.4,1505.3,324.8,-0.7,1.8,2470.22,13.32,0.062,253.3
2020-04-12T03:25:03,42.805,6.029,-0.052,-0.028,-0.055,106.0,104.0,102.0,13.4,1505.3,326.9,-0.7,1.8,2470.234,13.32,0.059,241.7
2020-04-12T03:28:03,42.805,6.029,-0.049,-0.01,-0.035,104.0,105.0,103.0,13.4,1505.3,323.2,-0.7,1.8,2470.224,13.32,0.05,258.5
2020-04-12T03:31:03,42.805,6.029,-0.051,0.0,-0.018,105.0,106.0,101.0,13.4,1505.3,325.1,-0.7,1.9,2470.224,13.32,0.051,270.0
2020-04-12T03:34:03,42.805,6.029,-0.043,-0.006,-0.032,105.0,105.0,101.0,13.4,1505.3,326.1,-0.7,1.8,2470.241,13.32,0.043,262.1
2020-04-12T03:37:03,42.805,6.029,-0.052,-0.009,-0.032,104.0,106.0,101.0,13.3,1505.3,325.5,-0.7,1.8,2470.212,13.32,0.052,260.2
2020-04-12T03:40:03,42.805,6.029,-0.056,-0.013,-0.014,105.0,104.0,102.0,13.4,1505.3,326.5,-0.7,1.8,2470.241,13.32,0.057,256.9
2020-04-12T03:43:03,42.805,6.029,-0.067,-0.012,-0.033,104.0,106.0,101.0,13.4,1505.3,326.1,-0.7,1.8,2470.242,13.32,0.068,259.8
2020-04-12T03:46:03,42.805,6.029,-0.06,-0.026,-0.009,106.0,105.0,102.0,13.3,1505.3,323.3,-0.7,1.8,2470.197,13.32,0.065,246.6
2020-04-12T03:49:03,42.805,6.029,-0.065,-0.024,-0.006,104.0,104.0,102.0,13.4,1505.3,325.3,-0.7,1.8,2470.22,13.32,0.069,249.7
2020-04-12T03:52:03,42.805,6.029,-0.027,-0.006,-0.014,104.0,106.0,103.0,13.3,1505.3,326.5,-0.7,1.8,2470.224,13.32,0.027,257.5
2020-04-12T03:55:03,42.805,6.029,-0.05,-0.03,0.008,105.0,105.0,101.0,13.3,1505.3,324.1,-0.7,1.8,2470.217,13.32,0.058,239.0
2020-04-12T03:58:03,42.805,6.029,-0.041,-0.026,-0.026,106.0,105.0,102.0,13.4,1505.3,325.1,-0.7,1.8,2470.197,13.32,0.048,237.6
2020-04-12T04:04:03,42.805,6.029,-0.053,-0.016,-0.03,106.0,105.0,102.0,13.4,1505.2,324.5,-0.7,1.8,2470.262,13.3,0.055,253.2
2020-04-12T04:07:03,42.805,6.029,-0.053,0.004,-0.028,105.0,104.0,102.0,13.3,1505.3,328.1,-0.7,1.9,2470.207,13.31,0.053,274.3
2020-04-12T04:13:03,42.805,6.029,-0.061,-0.026,-0.044,105.0,104.0,102.0,13.4,1505.2,326.4,-0.7,1.8,2470.224,13.3,0.066,246.9
2020-04-12T04:16:03,42.805,6.029,-0.053,-0.018,-0.006,105.0,104.0,102.0,13.3,1505.3,327.2,-0.7,1.8,2470.205,13.31,0.055,251.2
2020-04-12T04:19:03,42.805,6.029,-0.055,-0.03,-0.031,107.0,105.0,102.0,13.4,1505.3,326.4,-0.7,1.8,2470.24,13.31,0.062,241.4
2020-04-12T04:22:03,42.805,6.029,-0.072,-0.029,-0.029,105.0,103.0,101.0,13.3,1505.3,326.0,-0.7,1.9,2470.253,13.32,0.077,248.1
2020-04-12T04:25:03,42.805,6.029,-0.047,-0.012,-0.033,104.0,107.0,102.0,13.3,1505.3,325.7,-0.7,1.9,2470.229,13.32,0.048,255.7
2020-04-12T04:28:03,42.805,6.029,-0.04,-0.031,-0.018,106.0,104.0,101.0,13.4,1505.3,326.4,-0.7,1.8,2470.21,13.32,0.05,232.2
2020-04-12T04:31:03,42.805,6.029,-0.055,-0.034,-0.009,106.0,105.0,101.0,13.4,1505.3,325.4,-0.7,1.8,2470.229,13.32,0.064,238.3
2020-04-12T04:34:03,42.805,6.029,-0.049,-0.013,-0.043,103.0,105.0,103.0,13.4,1505.3,328.1,-0.7,1.8,2470.175,13.32,0.05,255.1
2020-04-12T04:37:03,42.805,6.029,-0.026,-0.013,-0.021,105.0,106.0,103.0,13.4,1505.3,326.8,-0.7,1.8,2470.229,13.32,0.029,243.4
2020-04-12T04:40:03,42.805,6.029,-0.046,-0.022,-0.046,106.0,105.0,102.0,13.4,1505.3,327.9,-0.7,1.8,2470.214,13.32,0.05,244.4
2020-04-12T04:43:03,42.805,6.029,-0.053,-0.029,-0.03,105.0,104.0,102.0,13.4,1505.3,326.4,-0.7,1.9,2470.204,13.32,0.06,241.3
2020-04-12T04:46:03,42.805,6.029,-0.05,-0.012,-0.035,104.0,105.0,103.0,13.4,1505.3,327.6,-0.7,1.8,2470.225,13.32,0.051,256.5
2020-04-12T04:49:03,42.805,6.029,-0.052,-0.019,-0.025,105.0,105.0,101.0,13.4,1505.3,323.2,-0.7,1.8,2470.231,13.32,0.055,249.9
2020-04-12T04:52:03,42.805,6.029,-0.065,-0.027,-0.035,105.0,106.0,101.0,13.3,1505.3,324.7,-0.7,1.8,2470.212,13.32,0.07,247.4
2020-04-12T04:55:03,42.805,6.029,-0.061,-0.021,0.0,105.0,105.0,102.0,13.4,1505.3,323.0,-0.7,1.8,2470.196,13.32,0.064,251.0
2020-04-12T04:58:03,42.805,6.029,-0.047,-0.014,-0.034,106.0,105.0,101.0,13.3,1505.3,325.3,-0.7,1.8,2470.248,13.32,0.049,253.4
2020-04-12T05:04:03,42.805,6.029,-0.033,-0.012,-0.017,104.0,106.0,100.0,13.4,1505.2,325.2,-0.8,1.8,2470.216,13.3,0.035,250.0
2020-04-12T05:07:03,42.805,6.029,-0.044,-0.046,-0.032,106.0,106.0,102.0,13.3,1505.3,325.0,-0.7,1.8,2470.244,13.31,0.063,223.7
2020-04-12T05:10:03,42.805,6.029,-0.035,-0.022,-0.018,105.0,105.0,101.0,13.3,1505.3,325.9,-0.7,1.8,2470.23,13.32,0.041,237.8
2020-04-12T05:13:03,42.805,6.029,-0.007,-0.04,-0.02,104.0,106.0,102.0,13.3,1505.3,324.4,-0.7,1.8,2470.25,13.32,0.04,189.9
2020-04-12T05:16:03,42.805,6.029,-0.025,-0.028,-0.013,104.0,106.0,102.0,13.3,1505.3,327.3,-0.7,1.9,2470.247,13.32,0.037,221.8
2020-04-12T05:19:03,42.805,6.029,-0.045,-0.045,-0.066,104.0,105.0,102.0,13.3,1505.3,326.1,-0.7,1.9,2470.219,13.32,0.063,225.0
2020-04-12T05:22:03,42.805,6.029,-0.012,-0.039,-0.025,104.0,104.0,100.0,13.4,1505.3,325.4,-0.7,1.8,2470.229,13.32,0.04,197.1
2020-04-12T05:28:03,42.805,6.029,-0.049,-0.06,-0.026,104.0,105.0,103.0,13.4,1505.2,324.7,-0.7,1.8,2470.243,13.3,0.077,219.2
2020-04-12T05:31:03,42.805,6.029,-0.065,-0.024,-0.033,106.0,105.0,102.0,13.4,1505.3,325.2,-0.7,1.8,2470.235,13.31,0.069,249.7
2020-04-12T05:34:03,42.805,6.029,-0.042,-0.044,-0.008,104.0,106.0,101.0,13.4,1505.3,323.7,-0.7,1.8,2470.238,13.31,0.06,223.7
2020-04-12T05:37:03,42.805,6.029,-0.017,-0.025,0.015,103.0,104.0,103.0,13.4,1505.3,324.7,-0.7,1.9,2470.22,13.32,0.03,214.2
2020-04-12T05:40:03,42.805,6.029,-0.036,-0.034,-0.033,105.0,105.0,103.0,13.3,1505.3,328.0,-0.7,1.8,2470.191,13.32,0.049,226.6
2020-04-12T05:43:03,42.805,6.029,-0.011,-0.046,-0.006,106.0,104.0,102.0,13.4,1505.3,326.5,-0.7,1.8,2470.262,13.32,0.047,193.4
2020-04-12T05:46:03,42.805,6.029,-0.04,-0.053,-0.052,105.0,105.0,101.0,13.4,1505.3,327.3,-0.7,1.8,2470.237,13.32,0.066,217.0
2020-04-12T05:49:03,42.805,6.029,-0.039,-0.043,-0.023,105.0,105.0,102.0,13.4,1505.3,326.6,-0.7,1.8,2470.243,13.32,0.058,222.2
2020-04-12T05:52:03,42.805,6.029,-0.03,-0.029,-0.016,106.0,105.0,102.0,13.4,1505.3,327.8,-0.7,1.8,2470.223,13.32,0.041,226.0
2020-04-12T05:55:03,42.805,6.029,-0.029,-0.055,-0.063,104.0,105.0,102.0,13.3,1505.3,323.1,-0.7,1.8,2470.199,13.32,0.062,207.8
2020-04-12T05:58:03,42.805,6.029,-0.022,-0.043,-0.026,105.0,104.0,100.0,13.4,1505.3,326.2,-0.7,1.8,2470.23,13.32,0.048,207.1
2020-04-12T06:04:03,42.805,6.029,-0.064,-0.051,-0.038,105.0,105.0,101.0,13.4,1505.2,325.0,-0.7,1.8,2470.27,13.3,0.081,231.4
2020-04-12T06:07:03,42.805,6.029,-0.009,-0.041,-0.035,105.0,105.0,103.0,13.3,1505.3,325.3,-0.7,1.8,2470.2,13.31,0.041,192.4
2020-04-12T06:10:03,42.805,6.029,-0.039,-0.046,-0.034,107.0,106.0,102.0,13.4,1505.3,326.0,-0.7,1.8,2470.211,13.31,0.06,220.3
2020-04-12T06:13:03,42.805,6.029,-0.001,-0.048,-0.027,105.0,105.0,102.0,13.3,1505.3,326.5,-0.7,1.8,2470.249,13.32,0.048,181.2
2020-04-12T06:16:03,42.805,6.029,-0.028,-0.066,-0.042,106.0,105.0,102.0,13.3,1505.3,325.1,-0.7,1.8,2470.26,13.32,0.071,203.0
2020-04-12T06:19:03,42.805,6.029,-0.03,-0.067,-0.034,107.0,106.0,103.0,13.3,1505.3,327.5,-0.7,1.8,2470.252,13.32,0.073,204.1
2020-04-12T06:22:03,42.805,6.029,-0.056,-0.044,-0.014,106.0,106.0,104.0,13.4,1505.3,325.4,-0.7,1.8,2470.237,13.32,0.071,231.8
2020-04-12T06:25:03,42.805,6.029,-0.044,-0.054,-0.075,107.0,107.0,102.0,13.3,1505.3,328.1,-0.7,1.8,2470.289,13.32,0.069,219.2
2020-04-12T06:28:03,42.805,6.029,-0.049,-0.055,-0.014,106.0,106.0,103.0,13.4,1505.3,325.9,-0.7,1.8,2470.255,13.32,0.073,221.7
2020-04-12T06:31:03,42.805,6.029,-0.05,-0.06,-0.032,107.0,105.0,104.0,13.3,1505.3,327.9,-0.7,1.8,2470.224,13.32,0.078,219.8
2020-04-12T06:34:03,42.805,6.029,-0.054,-0.054,-0.027,106.0,107.0,102.0,13.4,1505.3,324.2,-0.7,1.8,2470.24,13.32,0.076,225.0
2020-04-12T06:37:03,42.805,6.029,-0.04,-0.043,-0.026,106.0,107.0,102.0,13.3,1505.3,324.2,-0.7,1.8,2470.282,13.32,0.058,222.9
2020-04-12T06:40:03,42.805,6.029,-0.011,-0.049,-0.014,107.0,107.0,102.0,13.4,1505.3,326.6,-0.7,1.8,2470.26,13.32,0.05,192.7
2020-04-12T06:43:03,42.805,6.029,-0.038,-0.056,-0.019,107.0,106.0,103.0,13.4,1505.3,325.0,-0.7,1.8,2470.228,13.32,0.067,214.2
2020-04-12T06:46:03,42.805,6.029,-0.058,-0.066,-0.039,107.0,107.0,103.0,13.4,1505.3,324.1,-0.7,1.8,2470.236,13.32,0.087,221.3
2020-04-12T06:49:03,42.805,6.029,-0.045,-0.051,-0.034,107.0,105.0,103.0,13.4,1505.3,327.9,-0.7,1.8,2470.256,13.32,0.068,221.4
2020-04-12T06:52:03,42.805,6.029,-0.03,-0.048,-0.005,106.0,107.0,103.0,13.4,1505.3,325.3,-0.7,1.8,2470.229,13.32,0.056,212.0
2020-04-12T06:55:03,42.805,6.029,-0.044,-0.058,-0.028,105.0,106.0,103.0,13.4,1505.3,328.2,-0.7,1.8,2470.233,13.32,0.072,217.2
2020-04-12T06:58:03,42.805,6.029,-0.043,-0.053,-0.045,106.0,105.0,103.0,13.4,1505.3,326.4,-0.7,1.8,2470.268,13.32,0.068,219.1
2020-04-12T07:04:03,42.805,6.029,-0.031,-0.057,-0.013,105.0,106.0,104.0,13.4,1505.2,325.2,-0.7,1.8,2470.317,13.3,0.064,208.5
2020-04-12T07:07:03,42.805,6.029,-0.026,-0.075,-0.02,106.0,106.0,104.0,13.4,1505.3,325.9,-0.7,1.8,2470.247,13.31,0.079,199.1
2020-04-12T07:10:03,42.805,6.029,-0.027,-0.081,-0.045,106.0,106.0,102.0,13.3,1505.3,327.9,-0.7,1.9,2470.273,13.31,0.085,198.4
2020-04-12T07:13:03,42.805,6.029,-0.041,-0.059,-0.027,107.0,104.0,102.0,13.4,1505.3,324.0,-0.7,1.8,2470.253,13.32,0.071,214.8
2020-04-12T07:16:03,42.805,6.029,-0.014,-0.045,0.004,106.0,105.0,104.0,13.4,1505.3,326.1,-0.7,1.8,2470.259,13.32,0.047,197.3
2020-04-12T07:19:03,42.805,6.029,-0.021,-0.067,-0.06,107.0,106.0,102.0,13.3,1505.3,327.6,-0.7,1.8,2470.234,13.32,0.07,197.4
2020-04-12T07:22:03,42.805,6.029,-0.029,-0.06,-0.01,106.0,106.0,102.0,13.3,1505.3,323.1,-0.7,1.8,2470.278,13.32,0.066,205.8
2020-04-12T07:25:03,42.805,6.029,-0.024,-0.066,-0.067,107.0,106.0,103.0,13.3,1505.3,325.8,-0.7,1.9,2470.261,13.32,0.07,200.0
2020-04-12T07:28:03,42.805,6.029,-0.039,-0.07,-0.011,106.0,105.0,102.0,13.3,1505.3,325.4,-0.7,1.8,2470.266,13.32,0.08,209.1
2020-04-12T07:31:03,42.805,6.029,-0.025,-0.079,-0.014,106.0,106.0,103.0,13.4,1505.3,325.5,-0.7,1.8,2470.215,13.32,0.082,197.6
2020-04-12T07:34:03,42.805,6.029,-0.03,-0.057,-0.04,105.0,106.0,102.0,13.4,1505.3,323.3,-0.7,1.8,2470.291,13.32,0.064,207.8
2020-04-12T07:37:03,42.805,6.029,-0.022,-0.064,-0.015,107.0,106.0,103.0,13.4,1505.3,324.1,-0.7,1.8,2470.282,13.32,0.067,199.0
2020-04-12T07:40:03,42.805,6.029,-0.029,-0.09,-0.034,107.0,106.0,103.0,13.4,1505.3,324.8,-0.7,1.9,2470.281,13.32,0.094,197.9
2020-04-12T07:43:03,42.805,6.029,-0.029,-0.069,-0.046,106.0,107.0,104.0,13.4,1505.3,324.9,-0.7,1.8,2470.315,13.32,0.074,202.8
2020-04-12T07:46:03,42.805,6.029,-0.016,-0.079,0.009,107.0,106.0,103.0,13.4,1505.3,323.4,-0.7,1.9,2470.262,13.32,0.08,191.4
2020-04-12T07:49:03,42.805,6.029,-0.018,-0.053,-0.004,107.0,107.0,103.0,13.4,1505.3,324.0,-0.7,1.8,2470.276,13.32,0.055,198.8
2020-04-12T07:52:03,42.805,6.029,-0.03,-0.068,-0.006,107.0,106.0,103.0,13.4,1505.3,325.7,-0.7,1.8,2470.328,13.32,0.074,203.8
2020-04-12T07:55:03,42.805,6.029,-0.024,-0.039,-0.026,107.0,107.0,103.0,13.3,1505.3,327.8,-0.7,1.8,2470.298,13.32,0.045,211.6
2020-04-12T07:58:03,42.805,6.029,-0.018,-0.067,-0.023,106.0,106.0,103.0,13.4,1505.3,326.8,-0.7,1.8,2470.299,13.32,0.069,195.0
2020-04-12T08:04:03,42.805,6.029,-0.03,-0.075,-0.019,106.0,106.0,104.0,13.4,1505.2,326.1,-0.7,1.8,2470.314,13.3,0.08,201.8
2020-04-12T08:07:03,42.805,6.029,-0.025,-0.066,-0.041,106.0,105.0,103.0,13.4,1505.3,328.1,-0.7,1.9,2470.33,13.31,0.07,200.7
2020-04-12T08:10:03,42.805,6.029,-0.016,-0.065,-0.007,106.0,106.0,102.0,13.4,1505.3,326.3,-0.7,1.8,2470.301,13.31,0.066,193.8
2020-04-12T08:13:03,42.805,6.029,-0.036,-0.046,-0.014,108.0,106.0,103.0,13.4,1505.3,327.9,-0.7,1.8,2470.365,13.32,0.058,218.0
2020-04-12T08:16:03,42.805,6.029,-0.025,-0.062,-0.016,108.0,106.0,104.0,13.4,1505.3,323.9,-0.7,1.8,2470.352,13.32,0.066,202.0
2020-04-12T08:19:03,42.805,6.029,-0.035,-0.069,-0.009,107.0,107.0,104.0,13.4,1505.3,325.2,-0.7,1.8,2470.305,13.32,0.077,206.9
2020-04-12T08:22:03,42.805,6.029,-0.02,-0.069,-0.026,107.0,107.0,104.0,13.3,1505.3,328.0,-0.7,1.8,2470.345,13.32,0.071,196.2
2020-04-12T08:25:03,42.805,6.029,-0.018,-0.08,-0.04,106.0,106.0,103.0,13.4,1505.3,325.1,-0.7,1.8,2470.319,13.32,0.081,192.7
2020-04-12T08:28:03,42.805,6.029,-0.019,-0.072,-0.024,108.0,107.0,103.0,13.3,1505.3,324.4,-0.7,1.8,2470.363,13.32,0.074,194.8
2020-04-12T08:31:03,42.805,6.029,-0.047,-0.073,0.007,107.0,107.0,103.0,13.4,1505.3,325.5,-0.7,1.8,2470.307,13.32,0.086,212.8
2020-04-12T08:34:03,42.805,6.029,-0.015,-0.065,-0.006,108.0,106.0,104.0,13.4,1505.3,324.2,-0.7,1.8,2470.336,13.32,0.066,193.0
2020-04-12T08:37:03,42.805,6.029,-0.022,-0.054,-0.012,109.0,108.0,104.0,13.4,1505.3,326.8,-0.7,1.8,2470.326,13.32,0.058,202.2
2020-04-12T08:40:03,42.805,6.029,-0.035,-0.056,-0.027,108.0,106.0,104.0,13.4,1505.3,323.9,-0.7,1.8,2470.372,13.32,0.066,212.0
2020-04-12T08:43:03,42.805,6.029,-0.033,-0.064,-0.025,108.0,108.0,103.0,13.4,1505.3,324.7,-0.7,1.8,2470.33,13.32,0.072,207.3
2020-04-12T08:46:03,42.805,6.029,-0.028,-0.054,-0.008,108.0,107.0,104.0,13.4,1505.3,326.3,-0.7,1.8,2470.367,13.32,0.06,207.4
2020-04-12T08:49:03,42.805,6.029,-0.028,-0.042,-0.011,108.0,107.0,103.0,13.4,1505.3,325.2,-0.7,1.9,2470.354,13.32,0.05,213.7
2020-04-12T08:52:03,42.805,6.029,-0.039,-0.069,-0.015,107.0,107.0,103.0,13.4,1505.3,323.2,-0.7,1.8,2470.308,13.32,0.079,209.5
2020-04-12T08:55:03,42.805,6.029,-0.041,-0.055,-0.033,108.0,106.0,105.0,13.4,1505.3,328.3,-0.7,1.8,2470.35,13.32,0.068,216.7
2020-04-12T08:58:03,42.805,6.029,-0.036,-0.064,-0.035,107.0,107.0,104.0,13.4,1505.3,325.0,-0.7,1.9,2470.348,13.32,0.073,209.4
2020-04-12T09:04:03,42.805,6.029,-0.051,-0.054,-0.039,108.0,108.0,104.0,13.4,1505.2,325.9,-0.8,1.8,2470.36,13.3,0.074,223.4
2020-04-12T09:07:03,42.805,6.029,-0.02,-0.054,-0.008,108.0,107.0,103.0,13.4,1505.3,324.7,-0.7,1.9,2470.346,13.31,0.057,200.3
2020-04-12T09:10:03,42.805,6.029,-0.006,-0.058,-0.012,108.0,108.0,104.0,13.4,1505.3,324.3,-0.7,1.8,2470.343,13.31,0.058,185.9
2020-04-12T09:13:03,42.805,6.029,-0.01,-0.06,0.019,107.0,107.0,105.0,13.3,1505.3,323.5,-0.7,1.8,2470.343,13.32,0.06,189.5
2020-04-12T09:16:03,42.805,6.029,-0.038,-0.065,-0.02,107.0,107.0,104.0,13.3,1505.3,325.5,-0.7,1.8,2470.383,13.32,0.075,210.3
2020-04-12T09:19:03,42.805,6.029,-0.022,-0.08,-0.004,107.0,107.0,104.0,13.4,1505.3,322.9,-0.7,1.8,2470.408,13.32,0.082,195.4
2020-04-12T09:22:03,42.805,6.029,-0.044,-0.05,-0.043,109.0,108.0,105.0,13.4,1505.3,323.8,-0.8,1.8,2470.383,13.32,0.066,221.3
2020-04-12T09:25:03,42.805,6.029,-0.047,-0.044,-0.018,107.0,107.0,103.0,13.3,1505.3,326.0,-0.7,1.8,2470.352,13.32,0.064,226.9
2020-04-12T09:28:03,42.805,6.029,-0.023,-0.053,-0.006,107.0,108.0,104.0,13.4,1505.3,326.1,-0.7,1.8,2470.374,13.32,0.057,203.5
2020-04-12T09:31:03,42.805,6.029,-0.059,-0.103,-0.032,108.0,106.0,104.0,13.3,1505.3,326.7,-0.7,1.8,2470.335,13.32,0.118,209.8
2020-04-12T09:34:03,42.805,6.029,-0.025,-0.078,-0.019,108.0,107.0,104.0,13.3,1505.3,326.3,-0.7,1.8,2470.331,13.32,0.081,197.8
2020-04-12T09:37:03,42.805,6.029,-0.043,-0.062,-0.045,107.0,107.0,103.0,13.3,1505.3,326.4,-0.7,1.8,2470.343,13.32,0.075,214.7
2020-04-12T09:40:03,42.805,6.029,-0.03,-0.068,-0.013,107.0,107.0,103.0,13.4,1505.3,325.5,-0.7,1.8,2470.352,13.32,0.074,203.8
2020-04-12T09:43:03,42.805,6.029,-0.044,-0.059,-0.038,108.0,107.0,104.0,13.4,1505.3,325.5,-0.7,1.8,2470.319,13.32,0.073,216.7
2020-04-12T09:46:03,42.805,6.029,-0.053,-0.078,-0.023,108.0,107.0,104.0,13.3,1505.3,324.8,-0.7,1.8,2470.355,13.32,0.094,214.2
2020-04-12T09:49:03,42.805,6.029,-0.041,-0.071,-0.038,108.0,107.0,104.0,13.4,1505.3,326.3,-0.7,1.8,2470.335,13.32,0.081,210.0
2020-04-12T09:52:03,42.805,6.029,-0.062,-0.069,-0.007,106.0,107.0,103.0,13.4,1505.3,325.1,-0.7,1.9,2470.357,13.32,0.092,221.9
2020-04-12T09:55:03,42.805,6.029,-0.024,-0.074,-0.025,107.0,105.0,104.0,13.4,1505.3,323.3,-0.7,1.8,2470.333,13.32,0.077,198.0
2020-04-12T09:58:03,42.805,6.029,-0.033,-0.074,-0.028,106.0,106.0,104.0,13.4,1505.3,327.3,-0.7,1.8,2470.31,13.32,0.081,204.0